Location: Livermore
(37.6819°N, 121.7680°W)
Time: 12:31:41
(UTC+00:00)

Daily predictions for brighter satellites

Satellite Brightness Start Highest point End
(mag) Time Altitude Azimuth Time Altitude Azimuth Time Altitude Azimuth
Cosmos 1825 Rocket 4.1 12:02:05 10° NNW 12:06:01 35° W 12:08:19 20° SW
CZ-2C R/B 3.4 12:02:40 10° N 12:06:11 37° WNW 12:07:44 25° WSW
ARIANE 5 R/B 3.8 12:02:15 10° NNW 12:06:22 24° WNW 12:08:34 18° W
MSX 4.0 12:01:34 10° N 12:07:12 56° WNW 12:11:53 15° SW
USA 267 4.2 12:01:51 10° ESE 12:08:08 52° NE 12:14:26 10° NW
Cosmos 1745 Rocket 4.1 12:05:07 10° NNW 12:11:11 55° W 12:17:11 10° SSW
USA 102 4.4 12:05:36 10° S 12:11:22 46° WSW 12:14:16 13° NW
CZ-4B R/B 3.1 12:09:54 10° SE 12:12:53 35° ENE 12:15:48 10° N
Cosmos 1455 4.2 12:11:10 10° SSE 12:14:33 30° E 12:17:58 10° NNE
Landsat 5 3.5 12:11:59 10° S 12:15:46 48° W 12:19:44 10° NNW
Cosmos 1953 Rocket 4.0 12:12:13 10° NNW 12:16:27 42° W 12:20:38 10° SSW
Cosmos 1300 3.3 12:15:09 20° SW 12:17:17 36° W 12:20:51 10° N
Lacrosse 5 rocket 3.2 12:13:26 10° S 12:17:19 29° ESE 12:21:18 10° ENE
Cosmos 1900 4.4 12:17:06 10° NW 12:22:11 62° WSW 12:27:14 10° SSE
SeaSat 1 2.4 12:17:58 10° NNE 12:22:55 78° WNW 12:27:49 10° SSW
ADEOS Rocket 4.3 12:18:29 10° SSE 12:25:58 61° ENE 12:33:36 10° N
Cosmos 2058 3.9 12:23:41 10° N 12:27:45 50° E 12:31:50 10° SSE
ERS-2 2.6 12:25:24 10° S 12:28:47 37° W 12:32:12 10° NNW
Cosmos 1844 4.5 12:33:17 12° SW 12:38:16 37° WNW 12:43:35 10° N
TSX-5 3.6 12:39:39 10° SSW 12:42:48 64° ESE 12:45:57 10° NNE
SAR-Lupe-4 3.5 12:41:47 10° S 12:45:19 72° WSW 12:48:55 10° NNW
Cosmos 1689 Rocket 3.7 12:43:53 10° SE 12:46:36 39° ENE 12:49:20 10° N
CZ-2C R/B 2.8 12:44:40 10° N 12:48:57 39° WNW 12:53:19 10° SW
Cosmos 1709 Rocket 4.2 12:45:19 10° NNW 12:51:10 47° W 12:56:57 10° SSW
ASTRO F (AKARI) 4.2 12:48:33 10° NNE 12:51:39 89° SE 12:54:46 10° SSW
IDEFIX/ARIANE 42P 4.4 12:49:12 10° NNW 12:51:45 14° WNW 12:54:18 10° W
ADEOS 3.7 12:49:09 10° N 12:54:18 62° WNW 12:59:26 10° SSW
ATLAS 3B CENTAUR R/B 4.4 12:49:20 10° W 12:55:40 17° SW 12:59:50 10° S
